Hourly Data Report for September 05, 2017

All times are specified in Local Standard Time (LST). Add 1 hour to adjust for Daylight Saving Time where and when it is observed.

EAST POINT (AUT)
PRINCE EDWARD ISLAND

46°27'36.000" N
61°59'18.000" W
7.70 m
8300418
71412
WEP

Download Data

Hourly Data (September 2017)
Hourly Data Report for September 5, 2017
Temp Definition
°C
Dew Point Temp Definition
°C
Rel Hum Definition
%
Wind Dir Definition
10's deg

Wind Spd Definition
km/h
Visibility Definition
km
Stn Press Definition
kPa
Hmdx Definition


Wind Chill Definition


Weather Definition


TIME
00:00 15.1 12.2 83 21 22   100.83     LegendNANA
01:00 15.6 12.4 81 21 25   100.82     LegendNANA
02:00 15.8 12.4 80 21 19   100.84     LegendNANA
03:00 16.1 12.9 82 20 25   100.87     LegendNANA
04:00 16.4 13.2 82 20 23   100.87     LegendNANA
05:00 16.4 13.2 82 19 25   100.88     LegendNANA
06:00 16.6 13.3 81 18 27   100.95     LegendNANA
07:00 17.5 13.9 79 18 26   100.93     LegendNANA
08:00 17.9 13.7 76 19 28   100.99     LegendNANA
09:00 18.7 13.2 70 19 31   100.93     LegendNANA
10:00 19.9 14.3 70 19 32   100.93     LegendNANA
11:00 20.5 15.3 72 18 25   100.93 25   LegendNANA
12:00 21.5 15.1 67 18 26   100.90 26   LegendNANA
13:00 22.2 14.8 63 18 25   100.93 26   LegendNANA
14:00 22.7 14.6 60 19 24   100.93 26   LegendNANA
15:00 22.4 14.8 62 19 21   100.95 26   LegendNANA
16:00 21.2 15.3 69 18 21   100.98 25   LegendNANA
17:00 20.7 16.0 74 18 22   100.99 25   LegendNANA
18:00 20.3 15.8 75 18 29   101.02 25   LegendNANA
19:00 19.7 15.7 78 18 25   101.08     LegendNANA
20:00 19.3 16.3 83 18 24   101.15     LegendNANA
21:00 19.2 16.6 85 18 23   101.20     LegendNANA
22:00 18.9 16.5 86 19 25   101.23     LegendNANA
23:00 18.4 16.4 88 19 28   101.24     LegendNANA

Notes on Data Quality.

Legend

  • E = Estimated
  • M = Missing
  • NA = Not Available
  • ‡ = Partner data that is not subject to review by the National Climate Archives
Date modified: